Tracking 27079 objects as of 24-Mar-2023
HD Live streaming from Space Station
objects crossing your sky now

SL-8 R/B

Track SL-8 R/B now!
10-day predictions


NORAD ID: 35637
Int'l Code: 2009-039C
Perigee: 919.5 km
Apogee: 942.0 km
Inclination: 83.0 °
Period: 103.5 minutes
Semi major axis: 7301 km
RCS: 4.539 m2 (large)
Launch date: July 21, 2009
Source: Commonwealth of Independent States (former USSR) (CIS)
Launch site: PLESETSK MISSILE AND SPACE COMPLEX (PKMTR)

Note: This is a ROCKET BODY
Your satellite tracking list
Your tracking list is empty




NASA's NSSDC Master Catalog

Two Line Element Set (TLE):
1 35637U 09039C   23082.38891465  .00000089  00000-0  58206-4 0  9996
2 35637  82.9593 192.1731 0015377 348.2973  75.3196 13.91439223492132
Source of the keplerian elements: AFSPC